Miscellaneous Local Product
Issued by NWS Hastings, NE

Home | Current Version | Previous Version | Text Only | Print | Product List | Glossary Off
Versions: 1 2 3 4 5 6 7 8 9 10 11 12 13 14 15 16 17 18 19 20 21 22 23 24 25 26 27 28 29 30 31 32 33 34 35 36 37 38 39 40 41 42 43 44 45 46 47 48 49 50

000
AXUS43 KGID 301202
MISGRI

GID CWA HOURLY WEATHER ROUNDUP
NATIONAL WEATHER SERVICE HASTINGS NE
700 AM CDT WED JUL 30 2014

NOTE: "FAIR" INDICATES FEW OR NO CLOUDS BELOW 12,000 FEET WITH NO
SIGNIFICANT WEATHER AND/OR OBSTRUCTIONS TO VISIBILITY.

...SOUTH CENTRAL NEBRASKA...

CITY           SKY/WX    TMP DP  RH WIND       PRES   REMARKS
GRAND ISLAND   PTCLDY    57  54  89 N5        30.17S
HASTINGS       MOCLDY    60  54  80 CALM      30.16R
KEARNEY        MOCLDY    59  55  88 N6        30.18R
ORD            PTCLDY    53  52  96 CALM      30.17S
YORK           MOCLDY    55  55 100 CALM      30.16S
AURORA         PTCLDY    58  58 100 N3        30.17R
LEXINGTON      MOCLDY    61  59  94 CALM      30.19R
HOLDREGE       CLOUDY    62  59  90 NE3       30.17R
HEBRON         CLOUDY    63  57  79 CALM      30.15R

...NEBRASKA PANHANDLE...

CITY           SKY/WX    TMP DP  RH WIND       PRES   REMARKS
CHADRON        MOCLDY    54  52  93 SW3       30.24S
ALLIANCE       MOCLDY    59  54  83 N5        30.25S
SCOTTSBLUFF    CLOUDY    62  59  90 CALM      30.26S
SIDNEY         CLOUDY    62  60  93 E6        30.27R

...WESTERN AND NORTH CENTRAL NEBRASKA...

CITY           SKY/WX    TMP DP  RH WIND       PRES   REMARKS
VALENTINE      PTCLDY    49  48  97 W5        30.21R
AINSWORTH      CLEAR     52  49  89 W5        30.20S
ONEILL         FOG       52  49  90 CALM      30.18R VSB 1/4
BROKEN BOW     PTCLDY    55  53  93 CALM      30.19R
IMPERIAL       CLOUDY    63  60  90 SE5       30.21R
NORTH PLATTE   MOCLDY    60  57  89 CALM      30.20R
MCCOOK         CLOUDY    63  62  97 N6        30.19R FOG

...EASTERN NEBRASKA...

CITY           SKY/WX    TMP DP  RH WIND       PRES   REMARKS
NORFOLK        PTCLDY    54  52  93 CALM      30.16S
SO SIOUX CITY  CLEAR     53  52  96 NW6       30.15S
TEKAMAH        CLEAR     53  50  89 CALM      30.14S
ALBION         CLEAR     52  50  93 CALM      30.17S
OMAHA EPPLEY   PTCLDY    56  54  93 N5        30.15R
OFFUTT AFB     CLEAR     53  53 100 W5        30.14R
MILLARD        CLEAR     56  55  96 CALM      30.14S FOG
LINCOLN        PTCLDY    58  54  86 N6        30.16S
NEBRASKA CITY  PTCLDY    59  55  87 N5        30.14S
BEATRICE       MOCLDY    59  57  94 NE6       30.14S
FALLS CITY     MOCLDY    60  57  89 NW3       30.12S

...NORTHERN KANSAS...

CITY           SKY/WX    TMP DP  RH WIND       PRES   REMARKS
GOODLAND       LGT RAIN  60  58  92 NE10      30.20R
HILL CITY      CLOUDY    66  58  75 E10       30.15R
NORTON         RAIN      63  59  88 CALM      30.15R
PHILLIPSBURG   RAIN      64  64 100 E6        30.15R
SMITH CENTER   MOCLDY    63  61  94 E6        30.15S
HAYS           CLOUDY    66  55  68 E15       30.11S
RUSSELL        CLOUDY    67  58  72 E10       30.10R
CONCORDIA      CLOUDY    63  62  97 CALM      30.14R
SALINA         CLOUDY    69  56  62 NE13      30.11R
TOPEKA         CLOUDY    68  62  81 CALM      30.11R



USA.gov is the U.S. government's official web portal to all federal, state and local government web resources and services.